AirNav   Air Wisconsin pilot careers
 
 1273 users online  

NV61 Gilbert Development Corp Heliport
Las Vegas, Nevada, USA

GOING TO LAS VEGAS?


FAA INFORMATION EFFECTIVE 01 FEBRUARY 2018

Location

FAA Identifier: NV61
Lat/Long: 36-13-04.8900N / 115-08-01.0090W
36-13.081500N / 115-08.016817W
36.2180250 / -115.1336136
(estimated)
Elevation: 1981 ft. / 604 m (estimated)
Variation: 14E (1985)
From city: 5 miles W of LAS VEGAS, NV
Time zone: UTC -8 (UTC -7 during Daylight Saving Time)
Zip code: 89030

Heliport Operations

Heliport use: Private use. Permission required prior to landing
Activation date: 12/1982
Control tower: no
ARTCC: LOS ANGELES CENTER
FSS: RENO FLIGHT SERVICE STATION
Attendance: UNATNDD
Wind indicator: yes
Segmented circle: no

Heliport Communications

WX ASOS at VGT (3 nm W): 118.05 (702-648-6633)
WX ASOS at LAS (8 nm S): PHONE 702-736-1416
WX AWOS-3PT at HND (15 nm S): 120.775 (702-614-4537)

Nearby radio navigation aids

VOR radial/distance  VOR name  Freq  Var
LASr354/8.4LAS VEGAS VORTAC116.9015E
BLDr301/18.7BOULDER CITY VORTAC116.7015E

Heliport Services

Runway Information

Helipad H1

Dimensions: 60 x 60 ft. / 18 x 18 m
Surface: asphalt
Runway edge lights: FLOODLIGHTS
Latitude: 36-13.081500N
Longitude: 115-08.016817W
Elevation: 1981.0 ft.
Traffic pattern: leftleft

Heliport Ownership and Management from official FAA records

Ownership: Privately-owned
Owner: STEVE GILBERT
PO BOX 665
CEDAR CITY, UT 84720
Phone 435-586-5138
Manager: STEVE GILBERT
PO BOX 665
CEDAR CITY, UT 84720
Phone 435-586-5138

Heliport Operational Statistics

Aircraft based on the field: 1
Helicopters: 1
    

Additional Remarks

A52-H1 6' FENCE 50' NE.

Instrument Procedures

There are no published instrument procedures at NV61.

Some nearby airports with instrument procedures:

KVGT - North Las Vegas Airport (3 nm W)
KLSV - Nellis Air Force Base (5 nm E)
KLAS - Mc Carran International Airport (8 nm S)
KHND - Henderson Executive Airport (15 nm S)
KBVU - Boulder City Municipal Airport (21 nm SE)
 
Loc | Ops | Rwys | IFR | FBO | Links
Com | Nav | Svcs | Stats | Notes

AirNav Hotels Sweepstakes
 
Area around NV61 (Gilbert Development Corp Heliport)
 
Road maps at: MapQuest Bing Google
 
Aerial photo
No photo
 
Sectional chart

 
Airport distance calculator
Flying to Gilbert Development Corp Heliport? Find the distance to fly.

From to NV61

Sunrise and sunset
Times for 20-Feb-2018
 Local
(UTC-8)
 Zulu
(UTC)
Morning civil twilight05:5713:57
Sunrise06:2314:23
Sunset17:2501:25
Evening civil twilight17:5201:52

Current date and time
Zulu (UTC)  21-Feb-2018 00:11:53
Local (UTC-8)  20-Feb-2018 16:11:53
 
METAR
KVGT 
3nm W 
202353Z 00000KT 10SM CLR 08/M18 A3008 RMK AO2 SLP210 T00831183 10094 20056 56009
KLSV 
6nm E 
202356Z AUTO 06004KT 10SM CLR 09/M17 A3008 RMK AO2 SLP190 T00881173 10092 20054 57008 $
KLAS 
8nm S 
202356Z VRB03KT 10SM CLR 09/M19 A3008 RMK AO2 SLP190 T00891189 10094 20050 56011
KHND 
14nm S 
202356Z 05006KT 10SM CLR 08/M19 A3009 RMK AO2 SLP201 T00831194 10089 20044 56009 $
TAF
KVGT 
3nm W 
201723Z 2018/2118 34010KT P6SM SKC FM202000 VRB05KT P6SM FEW120 FM210400 33005KT P6SM BKN250 FM211700 12005KT P6SM BKN250
KLSV 
6nm E 
202303Z 2023/2205 18009KT 9999 SKC QNH3007INS BECMG 2107/2108 VRB06KT 9999 BKN130 QNH3009INS BECMG 2116/2117 13009KT 9999 BKN130 QNH3006INS BECMG 2121/2122 VRB06KT 9999 FEW160 QNH3003INS TX10/2122Z TNM01/2112Z
KLAS 
8nm S 
202046Z 2021/2124 09007KT P6SM SKC FM210300 23006KT P6SM BKN250 FM211500 VRB05KT P6SM BKN250
KHND 
14nm S 
201723Z 2018/2118 VRB04KT P6SM SKC FM202100 03006KT P6SM FEW120 FM210400 17006KT P6SM BKN250 FM211700 VRB05KT P6SM BKN250
NOTAMs
Click for the latest NOTAMs
NOTAMs are issued by the DoD/FAA and will open in a separate window not controlled by AirNav.

 

 
 

Would you like to see your business listed on this page?

 If your business provides an interesting product or service to pilots, flight crews, aircraft, or users of the Gilbert Development Corp Heliport, you should consider listing it here.  To start the listing process, click on the button below
 
Add a business
 

Other Pages about Gilbert Development Corp Heliport

Update a link
 
Copyright © AirNav, LLC. All rights reserved. Privacy Policy  Contact